Regional Weather Roundup
Issued by NWS

Home | Current Version | Previous Version | Text Only | Print | Product List | Glossary Off
Versions: 1 2 3 4 5 6 7 8 9 10 11 12 13 14 15 16 17 18 19 20 21 22 23 24 25 26 27 28 29

000
ASUS45 KGTF 032010
RWRMT
MONTANA HOURLY WEATHER ROUNDUP
NATIONAL WEATHER SERVICE GREAT FALLS MT
200 PM MDT SUN MAY 03 2015

NOTE: "FAIR" INDICATES FEW OR NO CLOUDS BELOW 12000 FEET WITH NO
SIGNIFICANT WEATHER AND/OR OBSTRUCTIONS TO VISIBILITY.

MTZ001>007-043-032100-
WEST OF THE DIVIDE

CITY           SKY/WX    TMP DP  RH WIND       PRES   REMARKS
KALISPELL      CLEAR     61  21  21 VRB3      29.98F
MISSOULA       SUNNY     64  22  20 NW8       29.96F
BUTTE          PTSUNNY   60  21  22 SE8       29.96F
DEER LODGE       N/A     61  10  13 N6        29.99
EUREKA           N/A     59  19  21 N6        30.00F
HAMILTON         N/A     63  21  20 NE9       29.94F
LIBBY            N/A     63  21  20 CALM      29.98F
$$

MTZ008-052>055-032100-
SOUTHWEST MONTANA

CITY           SKY/WX    TMP DP  RH WIND       PRES   REMARKS
BOZEMAN        CLOUDY    60  33  36 NE3       29.97F
DILLON         PTSUNNY   61  28  28 VRB6      29.94F
$$

MTZ009-010-012-014-046-048-049-054-032100-
EAST SLOPES AND CENTRAL MONTANA

CITY           SKY/WX    TMP DP  RH WIND       PRES   REMARKS
CUT BANK       SUNNY     59  24  26 VRB7      29.99F
GREAT FALLS    SUNNY     59  29  31 E6        29.98F
MALMSTROM AFB  SUNNY     59  31  35 NW5       29.99F
HELENA         MOSUNNY   64  23  21 VRB5      29.96F
$$

MTZ011-013-016-021-045-047-050-051-032100-
NORTH CENTRAL MONTANA

CITY           SKY/WX    TMP DP  RH WIND       PRES   REMARKS
HAVRE          SUNNY     60  25  26 E9G18     30.02F
LEWISTOWN      SUNNY     61  31  32 MISG      30.00F
CHINOOK          N/A     59  21  23 CALM      30.04F
FORT BENTON      N/A     63  28  27 E3        29.99F
$$

MTZ017>020-022>042-056>058-061-062-032100-
EASTERN PLAINS

CITY           SKY/WX    TMP DP  RH WIND       PRES   REMARKS
BAKER          SUNNY     61  29  29 VRB6      30.05S
BILLINGS       PTSUNNY   61  30  31 E12G20    30.01F
GLASGOW        SUNNY     59  23  25 VRB3      30.05F
JORDAN           N/A     62  23  22 NW8       30.04F
LIVINGSTON     PTSUNNY   61  32  33 NE13G20   29.98F
MILES CITY     CLOUDY    60  30  32 SE6       30.04F
SIDNEY         SUNNY     63  19  19 W12G21    30.05S
WOLF POINT     MOSUNNY   63  23  21 NW15      30.05S
BIG TIMBER       N/A     57  28  33 E10G17    30.01F
FORSYTH          N/A     61  28  29 NE5       30.03F
PLENTYWOOD       N/A     57  23  26 NW17G28   30.03F
POPLAR           N/A     61  21  21 NW9       30.04F
$$

REGIONAL REPORTS...DAKOTAS

CITY           SKY/WX    TMP DP  RH WIND       PRES   REMARKS
WILLISTON      LGT RAIN  64  22  20 NW21      30.03F
MINOT          SUNNY     63  24  22 NW24G30   29.98S
DICKINSON      SUNNY     61  26  26 NW13G22   30.02R
BEACH          CLOUDY    57  27  30 NW9       30.06S
CROSBY         FAIR      59  25  27 NW16G25   30.03R
WATFORD CITY   FAIR      61  21  21 NW17      30.01F
BISMARCK       MOSUNNY   67  26  21 NW14      30.00R
GRAND FORKS    MOSUNNY   69  27  20 NW17G26   29.89S
FARGO          CLOUDY    65  32  29 N12       29.92S
BUFFALO SD       N/A     55  36  48 CALM      30.00S
RAPID CITY     MOSUNNY   68  37  32 NE21      30.00S
$$

REGIONAL REPORTS...WYOMING/IDAHO/WASHINGTON

CITY           SKY/WX    TMP DP  RH WIND       PRES   REMARKS
GILLETTE       MOSUNNY   62  35  36 N9        30.01S
SHERIDAN       MOSUNNY   63  40  42 E10       30.00F
BUFFALO WY     MOSUNNY   62  38  40 SE12      30.02F
CODY           MOSUNNY   55  36  47 N8        30.00S
YELLOWSTONE LA   N/A     57  22  25 VRB5      30.06F
IDAHO FALLS    PTSUNNY   72  32  23 VRB5G17   29.91F
SALMON         PTSUNNY   64  28  25 N6        29.89F
BOISE          SUNNY     74  32  21 NW13      29.87F
SPOKANE        MOSUNNY   65  23  20 N7        29.97F
$$

REGIONAL REPORTS...ALBERTA

CITY           SKY/WX    TMP DP  RH WIND       PRES   REMARKS
EDMONTON       PTSUNNY   52  30  43 SW8       30.03R
LETHBRIDGE     MOSUNNY   54  30  40 VRB6      30.03F
MEDICINE HAT   PTSUNNY   54  27  35 W6        30.06F
$$

REGIONAL REPORTS...SASKATCHEWAN

CITY           SKY/WX    TMP DP  RH WIND       PRES   REMARKS
SWIFT CURRENT  MOSUNNY   55  21  26 W12G21    30.04F
REGINA         PTSUNNY   57  30  35 W13G23    30.03S
SASKATOON      PTSUNNY   54  30  40 SW10G17   30.02F
$$



USA.gov is the U.S. government's official web portal to all federal, state and local government web resources and services.